Theta_e
331 331 331 330 329 330 330 331 332 332 331 329 328 326 326 326 326 326 324 320 317 315 313 312 311 310 309 309 308 307 305 303 302 302 302 302 302 302 302 301 301 301 301 300 300 299 299 298 298 297 296 296 296 296 296 296 295 296 296 295 295 295 295
331 331 331 331 330 331 331 331 331 330 328 326 324 324 324 324 324 321 318 315 314 312 311 310 309 308 308 307 305 303 302 302 301 301 301 301 301 301 301 301 301 301 300 300 299 299 299 298 298 297 296 296 296 295 295 295 295 295 295 295 295 295 295
331 330 331 331 331 331 331 330 329 327 325 323 322 323 322 320 318 316 314 313 311 310 309 308 307 307 305 304 302 301 301 301 301 301 301 301 301 301 300 300 300 300 300 300 300 300 299 298 298 297 297 296 296 295 295 295 295 295 295 295 295 295 295
331 331 331 331 331 330 330 329 327 325 324 322 321 321 318 316 314 313 312 310 309 308 307 306 305 304 303 302 301 301 301 301 301 301 301 301 300 300 300 300 300 300 300 300 299 299 298 298 298 297 297 296 296 295 295 295 295 295 295 295 295 295 295
332 332 331 331 330 329 329 328 326 325 324 322 320 318 315 313 312 311 310 308 307 306 305 304 303 301 301 301 300 300 300 301 301 300 301 300 300 300 300 300 299 299 299 298 298 297 297 297 296 296 296 296 296 295 295 295 295 294 295 294 294 294 294
331 331 330 330 329 328 327 326 325 324 323 321 319 316 312 311 310 309 307 306 305 304 302 301 301 300 300 300 300 300 300 300 300 300 300 300 300 300 299 298 298 298 298 297 296 296 296 296 296 297 296 296 296 295 295 295 295 295 295 294 294 294 294
330 329 329 330 329 327 325 324 324 323 322 319 315 312 310 309 308 306 305 304 302 301 300 300 299 299 299 299 299 300 300 300 300 300 300 299 299 299 298 297 297 297 297 296 296 296 296 296 296 296 296 296 296 296 295 295 294 295 295 294 294 294 294
329 330 330 329 327 325 324 323 322 322 319 315 312 310 308 306 305 303 302 301 300 299 299 299 299 299 298 299 299 299 300 299 299 299 299 298 298 298 297 296 296 296 296 295 295 295 295 295 295 295 295 296 296 296 296 295 294 294 294 294 294 294 294
330 330 329 327 325 324 324 322 321 319 316 311 309 307 305 303 302 301 300 300 299 299 299 298 298 298 298 299 299 299 299 299 298 299 298 298 297 297 296 296 295 295 295 295 295 295 295 294 294 294 294 295 295 295 295 295 295 294 294 294 294 294 294
330 329 327 326 325 324 322 320 319 316 311 307 306 305 303 301 300 300 299 299 298 298 298 298 298 298 298 298 299 299 299 298 298 298 297 297 296 296 295 295 295 295 295 294 294 294 294 294 294 294 294 294 293 293 294 294 294 294 294 293 293 294 294
328 327 326 325 324 322 321 319 317 313 308 304 304 302 301 300 300 299 298 298 298 298 298 298 298 298 298 298 298 298 298 297 297 297 297 296 296 295 295 295 295 295 294 294 294 294 294 294 294 294 293 293 293 293 292 293 293 294 293 293 293 293 293
327 326 324 323 322 321 319 317 315 311 305 302 302 301 300 300 299 299 298 298 298 298 298 298 297 298 298 298 298 298 298 297 297 297 296 295 295 295 295 295 295 295 294 294 294 294 293 293 293 293 293 293 292 292 292 292 293 293 293 293 293 293 293
325 324 323 322 320 319 317 315 314 309 302 301 301 300 300 299 299 298 298 298 298 297 297 297 297 297 297 297 297 297 297 296 296 296 295 295 295 294 294 294 294 294 294 293 293 293 293 293 293 293 292 292 292 292 292 292 292 293 293 292 292 293 293
324 322 321 320 319 317 315 314 312 306 301 300 300 299 299 299 298 298 298 298 297 297 297 297 297 297 297 297 297 296 296 296 296 295 295 295 295 294 294 294 294 294 293 293 293 293 293 293 293 292 292 292 292 292 292 292 292 292 293 292 292 292 293
322 321 319 318 317 315 314 313 310 304 300 299 299 299 298 298 298 298 297 297 297 297 297 297 297 297 296 297 296 296 296 295 295 295 295 295 294 294 294 294 293 293 293 293 293 293 293 293 293 292 292 292 292 292 292 292 292 292 292 292 292 292 293
320 319 318 317 316 314 313 312 307 302 299 298 298 298 298 298 298 297 297 297 296 296 296 296 296 296 296 296 296 296 295 295 295 295 294 294 294 294 293 293 293 293 293 293 293 293 293 292 292 292 292 292 292 292 292 292 292 291 291 292 292 292 293
319 318 316 315 314 313 313 310 304 300 299 298 297 298 298 297 297 297 296 296 296 296 296 296 296 296 296 295 295 295 295 295 295 294 294 294 293 293 293 293 293 293 292 292 292 292 292 292 292 292 292 292 292 292 292 291 291 291 291 291 292 293 293
317 317 315 314 312 312 311 308 302 299 299 298 297 297 297 297 297 296 296 296 296 296 296 296 296 296 296 295 295 295 295 294 294 294 294 293 293 293 293 293 293 292 292 292 292 292 292 292 292 292 292 292 292 292 291 291 291 291 291 291 292 293 293
316 315 314 313 312 311 309 304 299 298 299 298 297 297 297 296 296 296 296 296 295 295 295 296 295 295 296 295 295 295 294 294 293 293 293 293 293 293 292 293 293 292 292 292 292 292 292 292 292 292 292 292 292 291 291 291 291 291 291 292 292 293 293
314 314 313 312 311 309 306 301 299 299 299 298 297 297 296 296 295 295 295 295 295 295 295 295 295 296 296 295 295 294 294 294 293 293 293 293 293 293 293 293 292 292 292 292 292 291 291 292 291 291 291 291 291 291 291 291 291 291 291 292 292 292 293
313 312 311 310 309 307 303 300 299 300 299 298 297 296 295 295 295 295 295 295 295 295 295 295 295 296 296 295 295 294 294 294 294 293 293 293 293 293 292 292 292 292 292 291 291 291 291 291 291 291 291 291 291 291 291 290 291 291 291 291 292 292 293
312 310 310 309 307 304 301 300 300 299 298 298 296 295 295 295 295 295 295 294 294 294 295 295 295 296 295 295 295 295 295 294 294 293 293 293 293 293 292 292 292 292 291 291 291 291 291 291 291 291 291 291 291 291 291 290 290 291 291 291 292 292 293
310 309 308 308 305 302 300 300 300 299 298 297 296 294 294 294 294 294 294 294 294 294 294 295 295 295 295 295 295 295 295 294 294 294 293 293 293 293 292 292 292 292 291 291 291 291 291 291 291 291 291 291 290 290 290 290 290 291 291 291 292 292 293
310 308 308 307 305 302 301 300 299 298 297 296 295 294 294 294 294 294 294 294 294 294 294 295 295 295 295 294 295 295 295 295 294 294 294 293 293 292 292 292 291 291 291 291 291 291 291 291 291 290 291 291 291 290 290 290 290 290 291 291 291 292 293
310 308 307 306 304 302 301 300 299 297 297 296 294 294 294 294 294 294 294 294 294 294 294 295 295 295 295 294 295 295 296 295 294 294 294 293 292 292 292 291 291 291 291 291 291 291 291 291 290 290 291 291 291 291 290 290 290 290 290 291 291 292 292
310 308 307 305 303 302 301 299 298 297 297 296 294 294 294 294 294 294 294 294 294 294 294 295 295 295 294 294 295 296 296 295 294 293 293 292 292 292 291 291 291 291 291 291 291 291 291 291 290 290 290 291 291 291 291 291 290 290 290 290 291 291 292
310 308 307 306 304 302 300 299 298 297 297 296 294 294 294 294 294 294 294 294 294 293 294 294 295 294 294 294 295 295 295 295 294 293 292 292 292 291 291 291 291 291 290 291 291 291 291 291 291 291 290 291 291 291 291 291 291 291 290 290 290 291 291
310 309 308 306 304 302 300 299 298 297 297 296 294 294 294 294 294 294 294 294 294 293 294 294 294 294 294 294 294 294 294 294 294 293 292 292 292 291 291 291 291 291 290 291 291 291 291 291 291 291 291 291 291 291 291 291 291 291 291 290 290 290 291
310 309 308 306 304 301 300 299 298 297 297 295 294 294 294 294 294 294 294 294 294 293 294 294 294 294 294 294 294 294 294 293 293 293 292 292 292 291 291 291 291 290 290 291 291 291 291 291 291 291 292 292 292 291 291 291 291 291 291 291 290 290 291
310 309 308 305 303 301 301 300 299 297 297 296 294 294 294 294 294 294 294 294 294 294 293 294 294 294 294 294 293 293 293 293 293 293 292 292 292 291 291 291 291 290 291 291 291 291 291 291 291 291 292 293 293 292 292 292 292 291 291 291 291 290 290
310 309 307 305 303 302 302 300 299 298 297 296 295 294 294 294 293 294 293 293 293 293 293 293 293 293 293 293 293 293 293 292 292 292 292 292 291 291 291 291 291 291 291 291 292 291 291 291 291 292 293 293 293 293 293 293 292 292 291 291 291 291 291
310 309 307 305 304 303 302 300 299 298 298 296 294 293 294 293 293 293 293 293 293 293 293 293 293 293 293 293 293 293 293 292 292 292 292 292 291 291 291 291 291 291 291 292 292 291 291 291 292 292 293 293 293 293 292 292 292 292 292 291 291 291 291
310 309 307 306 304 303 302 300 299 299 298 296 294 293 293 293 293 293 293 293 293 293 293 293 293 293 293 293 293 293 292 292 292 292 292 291 291 291 291 291 291 291 292 292 292 291 291 292 292 292 293 293 293 293 293 292 292 292 292 292 292 291 291
310 309 307 306 304 303 302 300 300 298 297 296 293 293 293 293 293 293 293 293 293 293 293 293 292 293 293 293 293 293 293 292 292 292 292 291 291 291 291 291 292 292 292 292 292 292 292 292 292 292 293 293 293 293 293 293 293 293 293 293 292 292 292
310 309 308 306 305 303 302 301 300 299 297 296 294 292 293 293 293 293 293 293 293 293 293 293 293 293 293 293 293 293 293 293 292 292 292 292 292 291 291 292 292 292 292 292 292 292 292 292 292 293 293 293 293 293 293 293 294 294 293 293 293 293 292
310 309 308 306 305 304 302 302 301 299 298 296 294 292 292 293 293 293 293 293 293 293 293 293 293 293 293 293 293 293 293 293 293 293 292 292 292 292 292 292 292 292 292 292 292 292 292 293 293 293 293 293 293 294 294 294 294 294 294 294 294 293 293
310 309 308 306 305 304 303 302 300 299 298 297 295 292 292 292 293 293 293 293 293 293 292 293 293 293 293 293 293 293 293 293 293 293 293 292 292 292 292 292 293 293 293 293 293 293 292 293 293 293 293 294 294 294 294 294 294 294 294 294 294 294 293
Wind_Speed
10 10 10 10 11 11 12 12 12 14 15 17 18 18 17 15 13 11 10 8 7 5 4 4 5 5 7 8 9 9 10 10 9 10 10 10 10 11 12 13 13 13 13 14 14 14 14 12 12 17 19 18 19 20 20 21 21 21 21 22 23 23 23
10 10 11 11 11 11 11 12 13 15 16 16 15 13 11 10 8 7 6 5 4 3 3 4 5 6 7 8 9 9 9 9 9 10 10 10 11 11 12 12 12 12 12 12 12 13 15 16 16 20 22 20 21 22 21 22 21 21 22 23 23 24 25
11 11 11 12 11 11 12 12 13 14 14 13 11 8 6 5 3 3 3 3 2 2 3 4 5 7 8 8 9 9 9 9 10 10 10 11 12 11 11 10 10 10 9 9 11 13 15 15 17 20 22 21 22 22 22 23 22 22 23 23 23 24 25
11 11 12 12 12 12 11 11 12 13 12 11 9 6 3 2 1 1 1 1 1 2 3 5 6 7 8 8 8 8 9 9 10 10 10 11 11 10 9 9 10 10 10 10 12 14 15 15 17 18 19 19 19 19 21 21 21 22 23 24 24 24 25
11 11 12 11 11 11 11 12 12 12 11 10 8 5 3 2 1 1 1 0 1 3 4 6 7 8 8 8 8 8 9 9 10 10 10 10 10 10 10 10 11 11 11 12 13 14 15 16 16 16 18 19 18 19 20 21 21 21 23 25 25 26 27
11 11 11 11 11 11 12 12 12 11 10 9 6 5 4 4 3 2 1 1 2 4 5 6 7 7 8 8 8 9 9 10 10 10 10 10 10 11 11 12 12 12 13 14 14 15 15 16 16 17 19 19 19 19 20 21 20 21 23 25 26 27 29
11 11 11 12 12 12 11 11 11 10 9 7 6 6 6 5 4 3 2 2 3 4 5 6 7 7 8 8 8 8 9 9 10 9 10 11 11 11 12 12 12 13 14 15 15 15 16 18 19 20 21 21 20 21 21 21 22 23 24 26 27 30 31
12 12 12 12 12 11 11 11 10 10 9 7 7 7 6 5 4 3 2 2 3 4 5 6 6 7 8 7 8 8 8 9 9 9 10 11 11 11 12 13 13 13 15 16 16 17 18 19 20 21 21 22 23 24 24 23 24 27 29 29 29 31 34
14 14 13 12 11 11 11 11 11 10 8 7 8 7 6 5 4 3 2 2 3 4 5 6 6 7 7 7 7 8 8 9 9 9 10 10 11 12 13 13 13 14 16 17 17 18 18 19 19 19 20 22 23 24 26 26 26 28 31 32 32 32 34
15 14 12 11 11 11 11 11 12 9 6 9 8 8 7 6 4 3 2 2 3 4 5 6 6 7 7 7 7 7 8 8 8 8 9 10 11 12 12 13 14 15 16 16 16 17 17 17 18 19 20 21 22 23 25 27 28 28 30 33 34 34 34
14 13 12 11 11 10 10 11 11 7 7 9 8 8 7 6 4 3 2 2 3 4 5 5 5 6 6 6 6 6 7 8 8 8 10 10 11 12 12 13 14 14 15 15 16 16 16 17 18 19 20 21 22 22 23 25 28 29 31 32 33 35 36
13 12 12 11 10 10 10 10 9 5 9 9 8 7 6 5 4 3 2 2 3 4 4 5 5 5 5 5 5 6 7 8 7 9 10 10 11 11 12 13 13 14 15 15 15 16 16 17 18 19 20 21 21 22 23 24 27 29 32 34 34 35 36
12 12 11 11 10 10 9 9 6 6 10 9 8 7 6 5 4 3 2 2 2 3 4 4 4 4 4 4 5 6 7 7 7 8 9 10 10 10 11 12 12 13 14 14 15 16 17 18 19 19 20 20 21 22 23 24 27 30 31 33 36 35 35
13 12 12 11 10 10 9 8 5 8 10 9 8 7 6 5 4 3 3 2 2 2 3 4 4 3 3 4 5 6 7 7 7 8 9 9 9 10 11 11 12 13 14 14 14 15 17 18 19 20 20 21 22 23 25 26 29 33 34 33 35 35 35
13 13 13 12 11 10 9 6 6 10 10 9 8 7 6 5 5 4 3 2 2 3 3 3 3 3 4 4 5 6 6 6 6 7 8 8 9 10 10 11 13 14 14 14 15 16 17 19 20 21 22 23 23 24 26 28 30 33 36 36 36 36 36
14 14 13 12 11 10 9 6 9 11 10 9 8 7 6 6 5 4 3 3 3 3 3 3 3 4 4 4 5 5 6 6 6 7 7 8 9 9 10 11 13 13 14 14 16 17 19 20 21 22 23 23 24 25 26 28 30 32 36 37 36 37 36
14 14 14 13 12 10 9 8 11 11 10 8 8 8 7 6 6 5 4 3 3 3 3 3 3 4 4 4 5 6 6 7 6 7 7 8 9 9 10 11 12 13 14 15 16 18 19 20 21 22 23 24 25 26 26 27 28 30 33 36 36 35 35
15 15 15 14 12 10 9 11 12 11 9 8 8 8 8 7 6 5 5 4 3 3 3 3 3 4 5 5 5 5 6 6 6 7 7 7 8 9 10 11 12 13 14 15 17 18 19 20 22 23 24 25 26 26 27 27 27 28 30 33 35 35 35
15 15 15 13 12 11 12 13 13 11 9 8 7 8 8 7 7 6 6 5 4 3 2 3 4 5 5 5 5 5 5 6 6 6 6 7 8 9 10 11 12 13 14 16 18 19 20 21 22 23 24 25 26 26 26 27 27 28 30 32 34 35 36
15 15 14 13 12 13 14 14 12 10 9 8 7 7 8 8 8 7 6 5 5 3 3 4 5 5 5 4 4 4 4 5 5 5 5 6 8 9 10 11 12 13 15 17 18 19 20 22 22 23 24 25 26 26 27 27 28 29 31 32 33 35 36
14 14 13 13 14 15 15 14 12 10 9 8 7 8 9 9 8 8 7 6 5 4 4 5 5 5 4 4 4 3 3 4 4 4 5 6 8 9 10 11 12 13 15 17 18 19 21 22 23 23 24 25 25 26 27 28 29 30 32 33 34 35 36
14 14 14 15 16 16 15 14 12 10 9 9 9 10 10 10 9 8 7 7 6 5 5 5 5 5 4 4 4 3 2 2 3 4 5 7 8 9 10 11 12 13 15 16 17 18 20 21 22 23 23 24 25 26 27 28 29 31 33 34 34 35 36
14 15 16 17 17 17 16 14 12 11 11 11 11 11 11 10 9 8 7 7 6 6 6 5 5 5 4 4 4 3 2 2 2 3 5 7 9 10 10 11 12 13 15 16 16 17 19 19 20 21 22 23 25 26 28 28 29 31 33 34 34 35 36
15 16 17 18 18 17 15 14 12 12 12 12 12 13 12 11 10 9 8 7 7 6 6 6 5 5 4 5 5 4 3 2 2 3 5 7 9 9 10 11 12 14 15 16 17 17 18 18 19 20 20 21 22 24 27 28 29 30 31 33 34 33 34
16 17 18 18 18 17 16 15 13 13 12 12 13 13 12 11 10 10 9 8 8 7 7 6 6 5 4 5 5 4 4 3 3 4 5 7 8 8 9 10 12 13 15 16 17 17 18 18 18 18 19 19 19 21 23 26 28 29 30 32 33 33 33
17 18 18 18 18 17 17 15 14 13 12 12 13 13 12 12 11 10 10 9 8 8 8 7 6 5 5 5 5 4 4 3 3 4 5 6 7 7 8 10 11 12 14 15 16 17 17 18 18 18 18 18 18 20 21 23 25 27 28 30 31 32 32
18 18 18 19 19 18 17 16 14 13 12 12 13 13 12 12 12 11 10 9 9 9 8 8 7 6 6 5 5 4 3 3 2 3 4 5 6 6 7 9 10 11 13 14 15 16 17 18 19 19 18 18 19 20 21 22 24 25 27 28 29 30 30
19 18 18 19 19 18 17 16 14 13 12 12 12 12 12 12 12 12 11 10 10 9 9 8 7 7 6 5 5 5 3 2 2 2 3 4 5 6 7 8 10 11 13 14 15 15 16 18 18 19 19 19 20 21 22 23 24 26 27 27 28 28 29
20 20 19 20 20 19 17 16 14 12 12 12 13 13 13 13 12 12 11 11 10 9 9 9 8 8 7 6 5 4 3 2 1 1 2 3 4 5 7 8 9 10 11 12 13 14 15 17 18 19 19 19 20 21 21 22 23 24 25 26 27 27 27
21 21 21 21 21 20 17 15 14 12 11 12 13 14 14 13 13 12 11 11 10 9 9 9 9 8 7 6 5 4 3 2 1 0 1 3 4 5 6 7 8 9 10 11 12 13 15 16 18 19 19 20 21 21 22 23 23 22 22 24 25 26 26
21 21 21 22 21 19 17 15 13 12 10 11 12 14 14 14 14 13 12 11 10 10 9 9 9 8 7 5 5 4 3 2 2 1 2 3 4 5 6 6 7 8 9 10 11 13 14 16 17 18 19 21 22 23 24 24 24 23 23 23 25 26 27
21 21 22 22 21 18 17 15 13 12 11 11 12 14 14 14 14 13 13 12 11 11 10 9 8 7 7 6 5 4 3 3 2 2 2 3 4 5 6 5 6 6 7 9 11 13 14 16 17 18 20 21 23 24 25 26 26 26 26 26 27 29 30
21 21 21 22 20 18 17 15 14 13 12 12 13 14 14 15 14 14 14 13 13 12 10 9 8 8 7 6 5 5 4 3 3 2 3 3 4 5 5 4 4 5 6 8 11 12 14 16 17 19 20 21 23 24 25 25 26 27 28 28 29 30 32
21 20 20 20 20 19 18 16 15 13 12 13 14 15 15 15 15 14 14 14 14 13 12 10 9 8 8 7 6 6 5 4 4 4 3 3 4 5 4 3 4 4 6 8 10 12 13 15 17 18 20 21 22 23 24 24 25 26 27 29 30 31 33
21 21 20 20 21 20 19 17 15 14 13 14 15 16 16 16 16 16 15 15 14 13 12 11 10 9 9 8 7 6 5 5 4 4 4 4 5 4 3 3 4 4 5 7 10 11 13 15 16 17 19 20 21 22 23 24 25 26 28 30 31 33 35
21 21 21 21 21 21 20 19 17 15 14 15 17 18 17 17 17 17 17 16 15 14 13 12 11 10 10 8 7 7 6 5 5 4 4 5 5 4 4 4 4 3 5 7 9 11 12 14 15 16 17 18 20 21 22 23 25 26 28 30 32 34 36
22 22 22 22 22 21 20 19 19 18 16 16 18 19 19 19 19 18 18 17 16 15 14 13 12 11 10 9 8 7 6 5 5 4 5 6 6 5 5 6 4 3 5 6 8 10 12 13 14 15 16 18 19 20 21 23 25 27 29 31 32 34 35
Wind_Direction
236 241 241 244 248 251 258 268 275 278 281 284 285 283 281 280 283 289 295 304 314 325 340 351 359 7 10 11 10 10 12 16 17 15 20 23 20 22 25 24 21 17 12 9 8 9 13 16 17 21 25 24 20 18 17 15 14 14 13 10 9 8 7
228 234 240 249 253 257 263 267 272 281 288 290 288 284 280 280 284 291 304 316 328 344 2 8 11 15 13 11 12 16 19 23 28 32 35 37 34 33 30 25 21 18 12 8 6 6 10 12 9 10 16 19 19 19 19 18 15 15 14 11 10 9 8
227 232 239 246 252 259 263 268 282 295 302 304 301 292 284 281 286 301 317 326 343 5 16 16 16 17 15 15 17 22 28 33 40 42 41 42 41 38 35 29 24 22 17 9 9 10 10 11 9 7 8 9 11 13 13 13 13 14 13 11 9 9 8
231 237 242 249 256 263 270 282 297 307 315 319 314 301 282 262 272 294 302 314 1 20 19 16 18 19 19 22 24 30 36 39 43 42 41 44 42 38 36 31 27 27 22 17 18 16 10 11 10 6 5 8 12 11 10 11 12 11 10 9 9 9 8
235 240 248 256 264 272 281 292 300 308 321 325 313 290 247 203 194 208 216 154 32 23 20 17 21 24 27 31 34 39 41 40 42 38 37 41 39 36 35 33 32 30 27 28 26 20 16 14 11 7 7 9 12 13 12 10 10 10 9 9 9 8 7
235 245 255 262 269 277 285 292 299 311 324 319 295 256 213 190 182 181 162 74 35 23 22 24 29 35 39 40 41 43 42 41 40 34 32 35 34 34 36 36 36 33 32 34 29 22 19 14 9 9 10 8 8 12 12 9 8 9 10 10 9 8 7
237 247 253 260 268 277 284 291 300 315 323 304 261 219 196 183 170 153 110 57 37 31 31 34 42 49 49 47 47 46 43 42 37 30 31 33 34 37 39 38 37 34 34 33 28 22 19 14 10 8 6 3 4 8 11 12 8 8 10 11 9 6 6
237 240 246 257 266 274 285 292 303 318 314 276 227 199 183 167 151 133 104 62 49 44 46 50 54 59 55 49 49 45 42 42 35 30 33 35 37 40 41 39 35 34 34 31 25 21 18 16 13 10 5 2 2 2 5 11 10 8 8 8 9 6 3
233 241 250 261 266 275 285 290 302 313 292 239 206 187 168 151 145 133 106 77 67 62 64 64 60 61 56 47 46 42 41 43 35 32 37 38 41 43 41 39 35 33 34 30 25 21 19 16 13 11 8 8 8 3 2 7 10 9 6 4 4 6 2
237 249 257 264 269 276 282 288 304 306 252 209 192 176 160 153 152 136 109 91 86 76 72 70 64 62 55 46 47 43 43 45 37 37 43 41 43 43 39 38 35 34 34 30 25 22 19 16 13 11 11 12 14 10 5 5 6 6 6 4 1 360 0
242 250 256 262 267 272 277 289 305 289 215 196 184 170 161 160 156 138 128 114 98 88 78 74 67 62 55 46 47 45 49 50 40 42 48 45 45 42 37 36 34 33 33 29 24 21 18 16 14 13 14 14 15 14 9 2 1 2 2 3 2 357 355
242 247 252 255 259 264 273 289 297 250 200 189 179 169 165 166 164 153 158 134 101 95 85 78 70 61 54 46 46 49 54 53 42 45 51 49 48 43 38 36 33 32 32 27 22 19 17 17 17 17 17 16 14 12 9 360 356 0 359 356 359 358 353
239 244 246 248 252 255 266 285 282 216 195 187 177 172 171 174 179 173 165 143 108 102 93 83 72 61 55 51 53 52 56 56 46 48 53 51 50 45 40 37 34 34 32 25 21 19 17 18 19 20 19 18 13 8 6 359 351 356 1 356 355 356 353
235 238 238 240 244 247 260 277 242 195 190 185 176 175 178 180 182 178 170 158 134 111 93 84 74 66 58 55 59 56 59 60 50 50 54 52 51 46 39 37 35 36 31 24 22 20 19 20 20 21 19 16 13 5 1 358 350 351 358 359 355 354 353
232 234 232 233 237 244 259 258 199 186 187 183 175 176 182 181 178 175 174 168 149 117 97 91 80 71 58 54 62 66 70 67 56 57 57 53 52 45 39 36 34 34 28 22 21 19 20 21 20 19 17 13 11 6 360 356 351 348 351 357 356 353 353
231 230 227 229 234 243 253 228 185 184 186 181 174 172 180 182 176 174 175 173 152 121 109 102 91 79 65 62 73 80 83 78 67 64 61 57 54 45 38 36 34 32 27 22 20 19 19 20 19 16 14 11 8 6 2 356 352 347 347 352 355 352 352
229 226 224 229 233 239 235 202 183 183 183 181 177 174 178 179 175 173 175 176 159 134 123 107 97 94 91 91 91 90 88 81 73 70 65 60 56 47 39 35 32 30 26 22 20 21 20 19 17 14 11 10 7 5 3 359 353 349 347 348 352 353 352
228 225 224 228 229 226 211 191 184 182 180 183 183 179 179 175 174 174 174 177 167 155 143 115 106 111 112 111 104 96 92 86 80 76 69 62 57 49 41 34 31 28 23 21 21 20 20 17 15 13 10 8 7 4 3 0 356 353 350 349 351 353 354
226 222 221 222 218 207 195 188 185 180 179 185 189 187 182 177 177 177 176 178 173 169 163 136 125 123 120 118 116 109 102 93 86 79 72 64 56 49 41 33 30 25 20 21 21 18 19 17 13 11 9 7 5 3 2 0 357 355 353 353 353 353 356
221 216 215 213 206 196 189 186 184 182 182 186 190 191 186 181 181 179 180 183 179 177 170 146 137 133 127 125 132 125 108 94 83 76 70 62 55 48 40 33 28 23 20 21 20 16 16 16 13 9 7 5 3 2 1 359 357 357 356 356 356 354 355
212 209 208 203 196 191 187 186 185 186 188 188 188 190 187 185 185 183 183 187 186 182 170 155 143 140 138 138 144 135 109 94 77 65 57 52 49 42 36 32 25 22 23 22 18 16 14 14 12 9 5 3 2 1 0 359 358 358 357 358 358 356 354
205 206 203 196 190 188 188 188 187 189 193 193 189 187 186 187 187 188 189 189 190 183 172 163 151 145 145 143 143 135 115 99 76 60 49 43 42 36 31 28 23 21 23 22 19 18 15 11 9 7 4 2 1 360 359 359 358 357 358 359 358 356 354
205 205 200 193 190 189 189 190 191 193 196 195 191 188 187 188 186 188 191 191 192 187 178 171 161 152 147 140 133 126 123 118 85 59 44 40 37 32 27 21 18 20 20 19 19 19 17 13 9 6 3 2 1 359 358 358 359 358 358 359 359 357 353
205 203 197 192 191 191 192 193 195 196 195 192 190 189 189 190 188 188 189 191 194 192 186 178 168 160 149 140 132 123 123 125 87 46 34 36 33 28 24 17 13 15 15 14 16 17 16 15 12 10 7 5 2 0 358 357 358 359 359 359 360 358 352
205 200 196 193 193 193 194 196 196 194 192 191 191 190 190 191 190 189 188 191 195 196 193 186 175 167 156 145 137 128 122 109 72 41 27 32 31 24 18 13 10 9 9 10 11 12 12 15 15 13 10 8 6 3 1 359 358 359 359 358 359 359 354
206 200 196 195 194 195 197 198 196 193 191 191 191 190 191 191 191 191 190 192 197 198 196 191 181 175 168 154 144 138 130 105 66 39 28 28 27 20 14 10 7 4 3 5 7 8 10 13 16 16 13 10 8 7 6 4 2 1 0 358 358 358 356
208 202 199 198 197 198 199 199 196 193 194 193 191 190 192 192 191 192 192 193 197 199 196 193 188 183 177 165 153 149 140 116 70 37 26 24 19 12 6 5 4 1 360 2 4 6 8 11 15 16 15 12 11 10 8 7 7 5 2 1 359 358 358
210 206 202 202 202 201 200 201 198 196 193 191 191 192 193 195 193 192 194 195 196 198 196 192 191 188 182 173 163 159 157 139 87 37 19 15 7 359 358 0 0 358 357 360 2 4 7 11 14 15 15 14 13 12 9 8 9 6 3 2 1 360 359
211 209 206 204 203 202 202 202 201 198 192 188 190 192 193 194 194 193 196 196 194 196 195 192 192 193 188 182 173 167 167 158 116 28 0 356 348 344 348 353 354 353 354 356 358 2 5 8 11 12 14 16 15 13 12 12 11 7 3 2 2 2 1
213 209 207 205 203 202 204 205 201 198 195 193 192 192 192 192 192 193 196 197 193 192 193 191 192 194 193 188 181 177 175 171 172 266 314 324 323 328 335 342 347 350 353 353 354 1 5 7 8 9 11 14 15 13 13 14 13 9 6 5 4 5 4
215 211 208 205 203 203 205 206 203 197 196 198 195 193 193 192 191 191 192 194 192 189 190 192 193 193 193 188 181 179 179 184 201 229 267 287 300 312 320 330 342 347 348 348 351 359 4 5 6 7 8 11 12 11 11 11 10 10 9 8 8 9 8
217 213 210 207 205 206 206 205 204 198 195 196 195 195 194 192 193 192 189 189 190 187 188 191 192 193 194 191 188 186 187 194 202 216 242 264 284 297 303 319 336 339 341 345 349 355 0 2 4 5 5 7 8 9 8 6 5 6 8 9 9 10 11
217 215 212 208 207 208 209 207 206 203 198 194 193 196 196 193 195 196 193 190 189 187 186 187 191 197 198 197 199 199 201 204 204 214 234 252 274 283 290 309 322 325 335 344 347 351 356 360 2 2 3 4 5 6 6 4 4 5 6 8 9 10 11
217 216 214 210 208 209 210 211 210 209 205 197 193 196 197 194 195 197 197 194 191 188 187 187 190 196 199 200 202 203 207 209 208 219 235 249 264 270 277 289 294 311 335 343 344 348 352 357 0 1 1 2 3 3 3 3 5 7 8 9 10 10 11
216 214 212 210 210 209 210 213 215 214 211 204 197 197 198 197 195 197 198 196 193 192 191 189 190 194 196 199 200 202 206 211 215 226 239 251 257 258 257 261 271 304 337 343 343 346 350 355 359 359 360 1 2 2 2 2 5 9 10 11 12 12 12
214 214 212 210 210 211 211 213 216 216 214 209 202 200 200 200 198 198 200 198 195 194 192 191 193 195 195 195 196 200 206 211 219 231 242 250 251 243 240 251 267 308 336 342 345 346 349 353 356 358 359 0 1 1 1 2 5 8 10 11 12 13 13
216 215 212 210 210 212 214 215 216 216 216 212 207 204 202 202 202 202 202 200 197 195 193 191 193 195 194 193 196 202 208 211 220 232 240 244 241 233 240 253 268 304 328 340 346 348 350 352 354 356 358 359 360 360 359 0 3 6 8 9 11 13 13